Starlink 1227

operational
NORAD ID: 45230 Int'l Des: 2020-012 Owner: SPXS Country: US Constellation: starlink
LEOCIRCULARSTARLINK_TYPE

About Starlink 1227

Description loading...

Live Position

Loading 3D Globe...

Upcoming Passes

Altitude History

Altitude vs Time

uPlot chart will show altitude changes over time

Two-Line Element Set

1 45230U 20012BE 25351.35921652 .00003584 00000-0 25921-3 0 9990
2 45230 53.0551 16.2138 0001263 88.2006 271.9128 15.06421967323001
Epoch: Dec 17, 2025 • Age: 24 hours

Current Status

Altitude 547.6 km
Velocity 7.59 km/s
Sub-Earth Point 24.58°N, 174.86°E
Launch Date Feb 17, 2020
Age 5.8 years
Type internet

Technical Details

Classification Payload
Mass 260.00 kg
Dry Mass 248.00 kg
Total Mass 260.00 kg
Length 0.20 m
Diameter 2.80 m
Span 9.00 m
Shape Box + pan
Manufacturer SPXS
Bus Type Starlink
Phase Status In Orbit
Owner/State SPXS/US

Large Constellations

Loading constellations...